[[{"header":{"parameterUnit":"m.s-1","parameterCategory":1,"la1":30.2991,"la2":30.254,"lo1":-89.0895,"lo2":-89.0444,"dy":0.0017,"dx":0.0017,"nx":28,"ny":28,"refTime":"2024-08-24T03:00:00:Z","depth":0,"parameterNumber":2,"parameterNumberName":"U-component_of_WINDS"},"data":[0,0,0,0,0,0,0,0,0,0,0,0,0,0,0,0,0,0,0,0,0,0,0,0,0,0,0,0,0,0,0,0,0,0,0,0,0,0,0,0,0,0,0,0,0,0,0,0,0,0,0,0,0,0,0,0,0,0,-4.5833,-4.5834,0,-4.5993,-4.5995,-4.5997,-4.5869,-4.5863,-4.5858,-4.5853,-4.6023,-4.6032,-4.6042,0,0,0,0,0,0,0,0,0,0,0,0,0,-4.542,-4.5428,-4.5832,-4.5834,-4.5836,-4.5993,-4.5995,-4.5997,-4.587,-4.5863,-4.5856,-4.585,-4.602,-4.6031,-4.6043,0,0,0,0,0,0,0,0,0,0,0,0,0,-4.5592,-4.5431,-4.5832,-4.5792,-4.5789,-4.5992,-4.5995,-4.5998,-4.5871,-4.5863,-4.5855,-4.5847,-4.6016,-4.603,-4.6044,-4.6297,0,0,-4.6089,-4.6095,0,0,0,0,0,0,0,0,-4.5582,-4.5607,-4.5795,-4.5795,-4.5793,-4.5902,-4.5912,-4.6098,-4.5873,-4.584,-4.5852,-4.5843,-4.599,-4.6006,-4.6054,-4.6305,-4.6313,-4.609,-4.6099,-4.6105,-4.6109,0,0,0,0,0,0,0,-4.5571,-4.56,-4.5896,-4.5798,-4.5797,-4.5767,-4.5782,-4.5947,-4.5959,-4.5843,-4.5834,-4.5854,-4.5988,-4.6041,-4.6057,-4.6315,-4.6089,-4.6102,-4.6111,-4.6117,-4.6783,-4.6791,0,0,0,0,0,0,-4.5562,-4.5591,-4.5891,-4.5901,-4.5665,-4.5781,-4.5798,-4.5876,-4.5957,-4.5962,-4.5861,-4.5847,-4.602,-4.6041,-4.6063,-4.6365,-4.6105,-4.6118,-4.6126,-4.6774,-4.6785,-4.6794,0,0,0,0,0,0,-4.5554,-4.559,-4.5884,-4.5743,-4.5778,-4.5797,-4.5885,-4.5883,-4.5936,-4.5971,-4.5973,-4.5913,-4.6014,-4.6043,-4.624,-4.6369,-4.6125,-4.6138,-4.6763,-4.6777,-4.6789,-4.6972,0,0,0,0,0,0,-4.5542,-4.5588,-4.5683,-4.5746,-4.5787,-4.6058,-4.5893,-4.5892,-4.596,-4.5944,-4.602,-4.6025,-4.601,-4.6219,-4.6254,-4.6385,-4.6149,-4.6751,-4.6769,-4.6785,-4.6954,-4.699,-4.702,0,0,0,0,0,-4.5528,-4.5729,-4.5689,-4.5726,-4.5906,-4.6066,-4.6089,-4.6066,-4.5971,-4.6068,-4.609,-4.6022,-4.6349,-4.624,-4.6279,-4.6416,-4.6743,-4.6764,-4.6784,-4.694,-4.6983,-4.7019,0,0,0,0,0,0,-4.5684,-4.5737,-4.5693,-4.592,-4.5989,-4.6044,-4.6165,-4.6113,-4.6212,-4.6193,-4.6162,-4.6181,-4.6388,-4.6421,-4.6299,-4.6665,-4.6531,-4.656,-4.6636,-4.6678,-4.671,-4.6699,-4.6161,0,0,0,0,0,-4.5744,-4.5867,-4.5908,-4.6105,-4.6141,-4.6148,-4.6216,-4.6193,-4.6264,-4.6293,-4.633,-4.6403,-4.6522,-4.6601,-4.6713,-4.6957,-4.6973,-4.7071,-4.7104,-4.7131,-4.7157,-4.729,-4.7334,-4.6861,-4.6861,-4.686,0,0,-4.5871,-4.5915,-4.5995,-4.6137,-4.6188,-4.6318,-4.6173,-4.6317,-4.6414,-4.6315,-4.6504,-4.6533,-4.6613,-4.6835,-4.6935,-4.6869,-4.729,-4.7156,-4.7178,-4.7189,-4.7315,-4.736,-4.74,-4.6875,-4.6872,-4.687,0,0,-4.6168,-4.6214,-4.6383,-4.6436,-4.6513,-4.6516,-4.6557,-4.6619,-4.6635,-4.6822,-4.6751,-4.6867,-4.7072,-4.7132,-4.7189,-4.7508,-4.745,-4.7545,-4.7719,-4.7849,-4.7886,-4.7919,-4.8034,-4.8076,-4.7571,-4.7571,-4.7572,0,-4.6317,-4.6508,-4.6477,-4.6626,-4.6691,-4.6605,-4.6777,-4.683,-4.6942,-4.699,-4.6913,-4.7169,-4.7216,-4.7452,-4.753,-4.7578,-4.7625,-4.7538,-4.7883,-4.7915,-4.7946,-4.8056,-4.8099,-4.7583,-4.7581,-4.758,-4.7579,0,-4.6687,-4.6822,-4.6949,-4.7056,-4.7135,-4.7296,-4.729,-4.7374,-4.7343,-4.7354,-4.7547,-4.76,-4.7721,-4.7775,-4.7747,-4.8008,-4.7964,-4.7886,-4.7751,-4.8003,-4.8105,-4.8147,-4.7599,-4.7595,-4.7591,-4.7588,0,0,-4.709,-4.7176,-4.7224,-4.7271,-4.735,-4.7454,-4.761,-4.7726,-4.78,-4.7879,-4.8011,-4.8186,-4.8113,-4.8179,-4.8157,-4.827,-4.8521,-4.8178,-4.818,-4.8242,-4.8813,-4.8873,-4.8922,-4.8482,-4.849,-4.8496,-4.8807,0,-4.7392,-4.7662,-4.7638,-4.7895,-4.8019,-4.7938,-4.8075,-4.8139,-4.8153,-4.8262,-4.8278,-4.8403,-4.8297,-4.8336,-4.8445,-4.8468,-4.8636,-4.8445,-4.8606,-4.8613,-4.8591,-4.8975,-4.9039,-4.933,-4.8846,-4.8853,-4.8858,0,-4.7782,-4.7872,-4.8141,-4.8201,-4.8252,-4.8375,-4.8479,-4.8583,-4.8654,-4.8657,-4.8729,-4.8687,-4.8846,-4.8706,-4.8926,-4.8796,-4.8861,-4.8882,-4.8892,-4.8909,-4.8752,-4.9003,-4.9422,-4.9466,-4.8921,-4.8916,-4.8911,0,-4.805,-4.824,-4.8425,-4.8468,-4.8542,-4.863,-4.8665,-4.8728,-4.8799,-4.8891,-4.8937,-4.9047,-4.9108,-4.9194,-4.9184,-4.9083,-4.9408,-4.9267,-4.9417,-4.9418,-4.9491,-4.9487,-4.9928,-4.953,-4.9529,-4.9528,-4.9527,0,-4.8391,-4.856,-4.8546,-4.8661,-4.8847,-4.8817,-4.9003,-4.9028,-4.9084,-4.9203,-4.914,-4.9254,-4.9232,-4.9346,-4.9339,-4.9523,-4.955,-4.9558,-4.9555,-4.9565,-4.9565,-4.9609,-4.9589,-4.954,-4.9537,-4.9535,-4.9533,0,-4.8724,-4.8721,-4.8918,-4.8971,-4.8988,-4.9123,-4.9169,-4.9278,-4.9286,-4.9437,-4.9471,-4.9485,-4.9616,-4.9613,-4.9762,-4.9757,-4.9983,-4.9956,-4.9959,-4.9954,-5.0105,-5.0092,-5.0591,-5.0656,-5.0214,-5.0218,-5.0222,0,-4.8943,-4.907,-4.9136,-4.921,-4.925,-4.9371,-4.9442,-4.9418,-4.9496,-4.9586,-4.9685,-4.9808,-4.9906,-5.0119,-5.0144,-5.0258,-5.0233,-5.04,-5.0251,-5.0257,-5.0238,-5.0231,-5.0245,-5.0431,-5.0436,-5.044,-5.0443,0,-4.9332,-4.9324,-4.9429,-4.9535,-4.9621,-4.9703,-4.9779,-4.9843,-4.9827,-4.9918,-5.0049,-5.0126,-5.0276,-5.0401,-5.0511,-5.0548,-5.0495,-5.049,-5.0531,-5.0544,-5.0541,-5.0546,-5.0042,-5.0479,-5.0475,-5.0473,-5.0471,-5.0469,-4.9616,-4.9725,-4.9788,-4.9907,-4.9961,-5.0032,-5.0137,-5.0157,-5.0266,-5.0385,-5.0364,-5.0512,-5.058,-5.0721,-5.0769,-5.0885,-5.0826,-5.0886,-5.0901,-5.0916,-5.0934,-5.0521,-5.0905,-5.0904,-5.0903,-5.0902,-5.0901,0,-5.0003,-5.0039,-5.0149,-5.0255,-5.0349,-5.0287,-5.0367,-5.045,-5.058,-5.0647,-5.0744,-5.0896,-5.1016,-5.1049,-5.1166,-5.1253,-5.1231,-5.1285,-5.1279,-5.1289,-5.0979,-5.0932,-5.13,-5.13,-5.13,-5.13,-5.13,-5.13,-5.0216,-5.0398,-5.0397,-5.0605,-5.064,-5.0783,-5.0834,-5.09,-5.0953,-5.1125,-5.1224,-5.1243,-5.1298,-5.1417,-5.1525,-5.1532,-5.1579,-5.1643,-5.164,-5.135,-5.1311,-5.1273,-5.1229,-5.1653,-5.1653,-5.1941,-5.1943,-5.1945]},{"header":{"parameterUnit":"m.s-1","parameterCategory":1,"la1":30.2991,"la2":30.254,"lo1":-89.0895,"lo2":-89.0444,"dy":0.0017,"dx":0.0017,"nx":28,"ny":28,"refTime":"2024-08-24T03:00:00:Z","depth":0,"parameterNumber":3,"parameterNumberName":"V-component_of_WINDS"},"data":[0,0,0,0,0,0,0,0,0,0,0,0,0,0,0,0,0,0,0,0,0,0,0,0,0,0,0,0,0,0,0,0,0,0,0,0,0,0,0,0,0,0,0,0,0,0,0,0,0,0,0,0,0,0,0,0,0,0,-2.3902,-2.3901,0,-2.386,-2.3859,-2.3859,-2.3813,-2.3813,-2.3812,-2.3812,-2.3769,-2.3768,-2.3768,0,0,0,0,0,0,0,0,0,0,0,0,0,-2.3941,-2.3941,-2.3902,-2.3901,-2.3901,-2.386,-2.3859,-2.3859,-2.3814,-2.3813,-2.3812,-2.3811,-2.3769,-2.3768,-2.3768,0,0,0,0,0,0,0,0,0,0,0,0,0,-2.3914,-2.394,-2.3902,-2.3873,-2.387,-2.386,-2.3859,-2.3859,-2.3814,-2.3813,-2.3812,-2.3811,-2.3769,-2.3768,-2.3768,-2.3782,0,0,-2.3765,-2.3765,0,0,0,0,0,0,0,0,-2.3916,-2.3913,-2.3878,-2.3875,-2.3872,-2.3841,-2.3857,-2.3833,-2.3814,-2.3835,-2.3811,-2.381,-2.3794,-2.3791,-2.3785,-2.378,-2.3778,-2.3765,-2.3765,-2.3764,-2.3764,0,0,0,0,0,0,0,-2.3918,-2.3914,-2.3885,-2.3878,-2.3874,-2.3862,-2.3857,-2.3853,-2.382,-2.3833,-2.383,-2.3826,-2.3792,-2.3786,-2.3784,-2.3778,-2.3765,-2.3764,-2.3764,-2.3764,-2.378,-2.3781,0,0,0,0,0,0,-2.3924,-2.3916,-2.3887,-2.3884,-2.3892,-2.3862,-2.3857,-2.3852,-2.382,-2.3815,-2.3826,-2.3824,-2.3788,-2.3785,-2.3782,-2.3795,-2.3764,-2.3763,-2.3763,-2.3779,-2.378,-2.3781,0,0,0,0,0,0,-2.3925,-2.3922,-2.3888,-2.3899,-2.3894,-2.3862,-2.3857,-2.3852,-2.3846,-2.3815,-2.3809,-2.3826,-2.3787,-2.3783,-2.3782,-2.3793,-2.3763,-2.3762,-2.3778,-2.3779,-2.3781,-2.3823,0,0,0,0,0,0,-2.3926,-2.3922,-2.3928,-2.39,-2.3894,-2.389,-2.3858,-2.3851,-2.3844,-2.384,-2.3814,-2.3808,-2.3786,-2.3783,-2.3781,-2.3791,-2.3762,-2.3777,-2.3779,-2.378,-2.382,-2.3825,-2.383,0,0,0,0,0,-2.3928,-2.3942,-2.3929,-2.3925,-2.39,-2.389,-2.3887,-2.3861,-2.3846,-2.385,-2.383,-2.3809,-2.3792,-2.3784,-2.3781,-2.3791,-2.3776,-2.3778,-2.378,-2.3818,-2.3824,-2.3829,0,0,0,0,0,0,-2.3974,-2.3938,-2.3923,-2.3928,-2.3913,-2.3883,-2.3888,-2.3869,-2.3857,-2.3853,-2.3821,-2.3816,-2.3818,-2.3804,-2.3795,-2.3802,-2.3781,-2.3782,-2.3811,-2.3816,-2.3821,-2.3824,-2.3761,0,0,0,0,0,-2.3984,-2.398,-2.3949,-2.3957,-2.395,-2.392,-2.3915,-2.3896,-2.3879,-2.3872,-2.3852,-2.3835,-2.3826,-2.3821,-2.3811,-2.3818,-2.381,-2.3823,-2.3828,-2.3832,-2.3834,-2.3834,-2.3839,-2.3788,-2.3788,-2.3788,0,0,-2.4007,-2.3987,-2.3986,-2.3965,-2.3951,-2.3946,-2.3915,-2.3912,-2.3907,-2.3871,-2.3868,-2.3853,-2.3832,-2.3835,-2.3835,-2.3823,-2.3846,-2.3835,-2.3838,-2.3837,-2.3837,-2.3841,-2.3846,-2.3789,-2.3789,-2.3789,0,0,-2.4044,-2.4029,-2.4033,-2.4019,-2.3997,-2.3977,-2.3978,-2.3951,-2.3939,-2.3935,-2.3907,-2.3901,-2.3887,-2.3872,-2.3863,-2.3893,-2.3872,-2.389,-2.3915,-2.3916,-2.392,-2.3923,-2.3932,-2.3935,-2.3892,-2.3892,-2.3892,0,-2.4074,-2.4066,-2.4038,-2.4035,-2.4026,-2.3993,-2.3995,-2.3983,-2.3959,-2.3953,-2.3941,-2.392,-2.3904,-2.3901,-2.3908,-2.3903,-2.3901,-2.3893,-2.3922,-2.3925,-2.3927,-2.3935,-2.3939,-2.3894,-2.3894,-2.3894,-2.3894,0,-2.4103,-2.4097,-2.4103,-2.408,-2.4072,-2.4072,-2.4043,-2.4038,-2.4019,-2.4,-2.3996,-2.3975,-2.3959,-2.3957,-2.394,-2.3951,-2.3945,-2.3928,-2.3906,-2.3935,-2.3942,-2.3944,-2.3898,-2.3897,-2.3896,-2.3896,0,0,-2.4169,-2.4128,-2.4131,-2.4119,-2.4091,-2.4086,-2.4084,-2.4068,-2.4063,-2.4048,-2.4044,-2.4031,-2.4014,-2.4004,-2.3984,-2.3985,-2.4007,-2.3967,-2.3966,-2.3974,-2.4016,-2.4028,-2.4032,-2.3993,-2.3994,-2.3994,-2.4017,0,-2.42,-2.4194,-2.4168,-2.417,-2.4163,-2.413,-2.4128,-2.411,-2.4092,-2.4083,-2.4063,-2.4054,-2.4034,-2.4026,-2.4026,-2.4005,-2.4015,-2.4003,-2.3988,-2.3988,-2.3993,-2.4036,-2.4049,-2.4072,-2.402,-2.402,-2.4021,0,-2.4236,-2.4221,-2.4222,-2.4193,-2.4189,-2.4188,-2.4169,-2.4162,-2.414,-2.4127,-2.4114,-2.4092,-2.4086,-2.4066,-2.4057,-2.4049,-2.4042,-2.403,-2.403,-2.4027,-2.4005,-2.4032,-2.4079,-2.4082,-2.4025,-2.4025,-2.4024,0,-2.4281,-2.4262,-2.4259,-2.425,-2.4217,-2.4216,-2.4202,-2.4179,-2.4171,-2.4155,-2.4148,-2.4132,-2.4123,-2.4111,-2.4083,-2.4072,-2.4077,-2.4055,-2.4064,-2.4065,-2.4066,-2.4066,-2.4111,-2.4064,-2.4064,-2.4064,-2.4064,0,-2.4318,-2.4319,-2.4279,-2.4277,-2.4277,-2.4246,-2.4247,-2.4229,-2.4209,-2.4203,-2.4174,-2.4168,-2.4133,-2.4123,-2.4102,-2.4097,-2.4093,-2.4081,-2.4075,-2.4083,-2.4084,-2.4077,-2.4074,-2.4065,-2.4064,-2.4064,-2.4064,0,-2.4368,-2.4341,-2.4336,-2.4304,-2.4296,-2.4297,-2.4269,-2.4265,-2.4245,-2.4237,-2.4233,-2.4201,-2.4188,-2.416,-2.4139,-2.4124,-2.4123,-2.4114,-2.413,-2.4126,-2.4136,-2.4135,-2.4176,-2.4179,-2.4132,-2.4133,-2.4133,0,-2.4393,-2.4393,-2.436,-2.4354,-2.4341,-2.4331,-2.4321,-2.429,-2.4281,-2.4256,-2.4255,-2.4239,-2.4225,-2.4204,-2.4178,-2.4162,-2.4151,-2.4166,-2.4148,-2.4155,-2.4148,-2.4148,-2.4147,-2.417,-2.4171,-2.4171,-2.4172,0,-2.4439,-2.4425,-2.4413,-2.4395,-2.4384,-2.4369,-2.4352,-2.4348,-2.4313,-2.4304,-2.429,-2.4278,-2.4256,-2.424,-2.4219,-2.4203,-2.4181,-2.4178,-2.4178,-2.4186,-2.4195,-2.4188,-2.414,-2.4177,-2.4176,-2.4176,-2.4176,-2.4175,-2.4476,-2.4473,-2.4449,-2.4436,-2.442,-2.4404,-2.4398,-2.4377,-2.4364,-2.4343,-2.4326,-2.4313,-2.4289,-2.4258,-2.4244,-2.4232,-2.4221,-2.4223,-2.4223,-2.4224,-2.4226,-2.4197,-2.4228,-2.4228,-2.4228,-2.4228,-2.4228,0,-2.4518,-2.4501,-2.4489,-2.4466,-2.4454,-2.4435,-2.4414,-2.4406,-2.4395,-2.4375,-2.436,-2.4343,-2.4326,-2.4299,-2.428,-2.4275,-2.4265,-2.4271,-2.4271,-2.4267,-2.4238,-2.4238,-2.428,-2.428,-2.428,-2.428,-2.428,-2.428,-2.4539,-2.4533,-2.4517,-2.4502,-2.4484,-2.4471,-2.446,-2.4445,-2.4429,-2.441,-2.4396,-2.4378,-2.4355,-2.4333,-2.4317,-2.4309,-2.4303,-2.4312,-2.4301,-2.4274,-2.4269,-2.4265,-2.4265,-2.4312,-2.4312,-2.4331,-2.4331,-2.4331]}]]